Regional Weather Roundup
Issued by NWS

Home | Current Version | Previous Version | Text Only | Print | Product List | Glossary On
Versions: 1 2 3 4 5 6 7 8 9 10 11 12 13 14 15 16 17 18 19 20 21 22 23 24 25 26 27 28 29 30 31 32 33 34 35 36 37 38 39 40 41 42 43 44 45 46 47 48 49 50
821
ASUS43 KTOP 232308
RWRKS

WEATHER ROUNDUP FOR KANSAS
NATIONAL WEATHER SERVICE GOODLAND KS
600 PM CDT SUN JUL 23 2017

NOTE:  "FAIR" INDICATES FEW OR NO CLOUDS BELOW 12,000 FEET WITH NO
SIGNIFICANT WEATHER AND/OR OBSTRUCTIONS TO VISIBILITY.

KSZ001>006-013>018-027>032-041>047-240000-
NORTHWEST KANSAS

CITY           SKY/WX    TMP DP  RH WIND       PRES   REMARKS
GOODLAND       SUNNY     90  53  28 SE12G17   30.06F
HAYS             N/A     95  58  28 E9        29.95F
HILL CITY      FAIR      95  58  28 VRB7      29.98F
RUSSELL        FAIR      96  57  27 E8        29.93F HX  95
$$

KSZ061>065-074>080-084>089-240000-
SOUTHWEST KANSAS

CITY           SKY/WX    TMP DP  RH WIND       PRES   REMARKS
DODGE CITY     FAIR      93  62  35 SE3       29.98F
ELKHART          N/A     88  58  36 E12         N/A
GARDEN CITY    FAIR      91  59  33 E9        30.00F
LIBERAL        FAIR      91  62  37 E14       30.00F
PRATT          FAIR      90  63  40 E7        29.94F
$$

KSZ066>073-081>083-090>101-240000-
SOUTHEAST KANSAS

CITY           SKY/WX    TMP DP  RH WIND       PRES   REMARKS
CHANUTE        FAIR      93  69  45 NE7       29.89F HX  98
COFFEYVILLE    FAIR      93  69  45 N7        29.87F HX  98
HUTCHINSON     FAIR      92  66  42 VRB5      29.91F
MEDICINE LODGE   N/A     95  63  34 NW7       29.88F HX  96
PARSONS        FAIR      90  70  51 MISG      29.89F HX  95
WICHITA INTL   FAIR      92  70  48 N5        29.89F HX  97
WICHITA JABRA  FAIR      92  69  47 NE7       29.89F HX  97
WICHITA MCCONL FAIR      91  67  46 NE13      29.89F
WINFIELD       FAIR      94  65  38 NE12      29.88F HX  96
$$

KSZ007>012-019>026-033>040-048>060-102>105-240000-
NORTHEAST KANSAS

CITY           SKY/WX    TMP DP  RH WIND       PRES   REMARKS
CONCORDIA      FAIR      94  65  38 N10       29.92F HX  96
EMPORIA        FAIR      91  71  51 NE6       29.90F HX  97
LAWRENCE       FAIR      92  75  57 CALM      29.88F HX 103
MANHATTAN      FAIR      96  66  37 E6        29.88F HX  99
MARYSVILLE     FAIR      91  68  46 N9        29.92S HX  95
OLATHE IND     FAIR      90  74  59 VRB3      29.90F HX  99
OLATHE EXE     FAIR      90  72  55 VRB3      29.90F HX  97
SALINA         FAIR      97  61  30 NE10      29.90F HX  97
TOPEKA BILLARD FAIR      92  72  51 E3        29.88F HX  99
TOPEKA FORBES  FAIR      92  72  51 E3        29.90F HX  99
$$




USA.gov is the U.S. government's official web portal to all federal, state and local government web resources and services.